Regional Weather Roundup
Issued by NWS Midland/Odessa, TX

Skip options and go directly to product.
Home | Oldest Version | Next Version | Current Version | All | Text Only | Save Text | Print | Product List | Glossary On

Skip product version selection by date and time.   
934
ASUS44 KMAF 010001
RWRMAF
MIDLAND AREA WEATHER ROUNDUP
NATIONAL WEATHER SERVICE MIDLAND TX
700 PM CDT FRI JUL 31 2015

...IN SOUTHWEST TEXAS AND SOUTHEAST NEW MEXICO...

CITY           SKY/WX    TMP DP  RH WIND       PRES   REMARKS
ALPINE         SUNNY     86  51  30 E13       30.22F
ANDREWS        FAIR      93  50  22 SE9       30.07F
ARTESIA        MOSUNNY   93  54  26 S8        30.09S
BIG SPRING     MOSUNNY   95  55  25 E13       30.05F
CARLSBAD       MOSUNNY   97  49  19 E8        30.05F
DRYDEN           N/A     99  58  25 SE9G16    29.98F
FORT STOCKTON  SUNNY     96  54  24 E15G22    30.04F
GUAD PASS      SUNNY     83  47  28 E18G24    30.24F
HOBBS          MOSUNNY   93  48  21 SE10      30.10F
MARFA          MOSUNNY   82  50  32 E8        30.19F
MIDLAND AIRPK  MOSUNNY   98  51  20 E10       30.05F
MIDLAND INTL   MOSUNNY   96  53  23 E7        30.04F
ODESSA         MOSUNNY   97  49  19 NE8       30.05F
PECOS          SUNNY     98  51  20 E7G18     30.00F
PRESIDIO       FAIR      97  48  18 MISG      29.99F
SEMINOLE       MOSUNNY   95  48  20 E10       30.09F
SNYDER         SUNNY     93  65  39 NE14      30.05F
WINK           MOSUNNY   99  51  19 SE13G18   30.01F
$$
...OTHER STATIONS IN TEXAS...

CITY           SKY/WX    TMP DP  RH WIND       PRES   REMARKS
ABILENE        PTSUNNY   98  60  28 E9        30.00R
AMARILLO       MOSUNNY   83  63  50 E8        30.17F
AUSTIN         MOSUNNY   95  72  47 SE12      29.91F HX 103
BROWNSVILLE    PTSUNNY   85  73  67 E9        29.94F
CORPUS CHRISTI LGT RAIN  83  69  62 NE18G35   29.96R FOG
DALLAS FTW     PTSUNNY   93  65  39 NE12      29.99R
DEL RIO        MOSUNNY   93  67  42 E10       29.93S
EL PASO        MOSUNNY   93  51  23 S10       30.08F
HOUSTON INT    MOSUNNY   95  61  32 NE14      29.91S
LUBBOCK        PTSUNNY   79  66  64 W7        30.13R THUNDER
SAN ANGELO     SUNNY     99  58  25 E8        29.98F
SAN ANTONIO    PTSUNNY   91  70  49 E6        29.94F
WACO           SUNNY     96  66  37 E13       29.95S
WICHITA FALLS  NOT AVBL
$$
...OTHER LOCATIONS IN NEW MEXICO...

CITY           SKY/WX    TMP DP  RH WIND       PRES   REMARKS
ALAMAGORDO     CLOUDY    88  55  33 NE14      30.12S
ALBUQUERQUE    PTSUNNY   81  51  35 NW8       30.25S
CANNON AFB     MOSUNNY   86  64  48 SE10      30.18F
CLOVIS         PTSUNNY   82  63  51 SE17G28   30.20S
HOLLOMAN AFB   PTSUNNY   85  56  36 N24       30.10S
ROSWELL        MOSUNNY   91  59  33 NE8       30.08F
RUIDOSO          N/A    N/A N/A N/A MISG        N/A
SANTA FE       PTSUNNY   75  55  49 N16       30.32S
TRUTH OR CONSE SUNNY     88  54  31 S8        30.16F
TUCUMCARI      PTSUNNY   79  65  62 NW20G25   30.20R
$$

USA.gov is the U.S. government's official web portal to all federal, state and local government web resources and services.